GFSFLT2_925_spd_159.txt.gz
Wind_Speed
22 22 20 18 17 15 13 12 11 11 10 9 7 6 5 5 8 10 10 11 11 11 11 10 10 10 11 11 12 12 12 11
21 19 18 18 18 15 11 8 5 5 6 8 10 10 8 7 7 9 12 13 13 14 13 13 12 12 12 13 14 14 15 13
18 17 16 15 14 12 10 9 9 7 6 4 4 8 10 9 9 10 11 14 16 15 15 15 14 14 14 15 15 15 15 16
18 17 16 15 15 14 13 13 13 11 10 9 8 7 7 7 8 10 13 14 16 18 17 16 16 13 15 17 18 16 16 19
17 17 17 16 16 15 15 14 14 14 14 13 12 10 9 8 9 10 10 14 15 15 18 18 16 16 15 18 20 19 18 18
14 15 16 16 16 16 16 16 17 17 16 16 15 14 13 13 11 11 10 11 13 17 16 18 22 21 24 23 21 23 24 18
12 15 16 17 17 17 16 16 16 17 17 18 17 15 14 14 13 14 15 13 14 18 18 19 19 23 26 27 25 25 24 19
10 12 15 16 17 17 16 16 18 18 17 18 18 15 14 14 16 16 15 15 18 14 20 19 24 22 23 28 28 27 22 21
12 12 14 15 17 18 17 17 18 17 16 17 17 16 16 15 14 15 16 17 21 23 18 22 23 26 28 26 28 28 22 22
13 13 15 17 19 18 16 15 15 16 16 16 19 17 15 15 14 15 16 17 17 19 22 20 23 26 29 26 23 24 25 23
11 14 18 19 17 15 12 14 16 16 15 16 19 18 18 16 16 17 18 17 16 17 19 22 24 24 28 28 24 26 27 27
12 14 16 17 14 12 9 9 14 16 16 16 19 17 18 17 16 16 17 17 17 17 19 21 24 24 24 27 26 24 27 29
14 14 14 12 12 11 9 16 16 16 15 17 17 18 18 18 17 17 16 17 18 19 20 21 24 24 23 22 26 27 26 27
14 15 13 10 10 11 9 15 12 13 15 16 16 18 18 18 19 19 18 20 20 20 19 20 22 20 12 13 5 13 23 28
13 13 12 11 13 13 14 11 13 11 16 15 16 18 18 18 19 19 21 20 22 22 19 18 21 23 23 11 4 9 6 19
10 12 12 13 14 14 15 14 15 15 14 15 18 18 19 18 18 18 22 22 22 22 20 20 20 22 23 26 28 29 6 6
11 11 12 13 14 14 15 14 13 14 15 18 17 18 18 19 17 19 21 22 22 24 25 23 24 25 23 23 29 26 33 12
10 13 15 17 16 15 15 15 16 18 19 19 18 20 18 19 20 21 21 23 23 25 26 27 28 28 28 27 26 17 11 12
13 14 16 15 15 16 16 15 15 17 20 21 23 20 19 22 23 21 24 23 25 27 28 30 31 31 31 29 28 32 34 28
13 14 15 16 16 18 17 16 17 16 20 21 20 20 22 22 23 23 23 23 23 26 26 28 30 33 34 33 33 35 33 36

GFSFLT2_925_spd_162.txt.gz
Wind_Speed
13 14 12 11 10 7 5 4 4 3 3 3 4 5 6 7 8 9 10 12 12 11 11 11 11 11 13 13 13 12 12 12
12 11 10 10 9 7 7 5 4 4 4 4 4 5 8 9 8 9 11 12 13 14 14 13 12 13 14 14 14 14 14 14
12 12 11 11 10 10 9 7 7 7 7 7 7 8 8 8 10 11 12 14 15 15 16 16 15 15 16 17 16 14 15 15
11 10 10 10 10 10 10 11 10 10 11 11 10 11 10 11 10 12 12 14 16 17 17 17 17 15 15 15 17 16 16 17
10 10 10 10 9 10 9 9 10 10 12 13 12 11 11 10 11 10 11 13 14 15 16 17 18 18 17 16 16 17 18 17
8 9 9 10 9 8 8 8 9 9 11 13 12 11 11 11 11 12 12 12 14 13 18 19 20 20 21 20 19 18 19 19
8 9 10 10 9 8 8 8 9 9 9 11 11 10 12 13 12 12 13 14 14 19 17 18 21 23 24 23 22 21 20 20
7 8 9 9 9 10 9 9 9 9 9 10 11 11 11 13 14 13 13 14 15 17 20 22 20 22 25 22 23 23 22 22
7 8 9 9 9 8 8 8 8 9 10 10 12 11 12 12 13 14 14 15 17 17 18 20 26 22 27 25 24 22 25 24
6 7 8 9 8 7 6 7 8 9 9 9 12 11 12 12 11 12 15 16 16 17 17 18 20 23 20 25 27 24 27 28
5 6 8 9 8 7 7 8 9 8 8 9 11 10 12 12 11 11 14 14 16 17 17 17 19 21 23 24 25 27 29 30
5 6 8 9 8 9 7 8 10 9 9 11 12 11 12 13 12 13 14 14 15 17 19 18 19 21 24 27 27 26 30 31
7 7 9 9 10 12 9 10 11 10 10 12 12 14 14 12 12 14 14 14 16 17 19 20 17 17 21 23 30 30 30 29
6 7 8 9 10 10 9 12 8 10 11 11 12 14 14 14 14 14 15 16 17 16 18 18 16 14 14 18 10 21 28 30
6 6 7 8 10 8 10 9 8 8 12 11 15 14 14 14 14 14 15 16 17 18 18 18 18 18 15 11 7 11 11 22
5 6 7 7 9 8 10 11 12 12 12 13 15 15 16 15 16 16 16 17 17 18 17 19 18 21 18 16 23 23 6 8
4 6 6 7 8 8 10 11 12 11 13 15 15 15 15 15 16 18 18 16 17 19 21 20 20 22 20 20 20 25 28 12
4 5 6 7 7 8 9 9 12 13 13 15 16 16 16 16 18 19 19 19 19 20 22 23 23 23 23 23 22 16 14 15
3 5 6 7 8 8 9 10 11 12 13 16 18 17 16 17 20 21 21 21 21 21 22 24 24 24 24 24 25 24 24 27
5 6 7 8 9 10 11 12 13 13 13 16 16 18 19 21 21 22 22 21 22 21 23 23 24 26 28 27 28 28 26 27

GFSFLT2_925_spd_165.txt.gz
Wind_Speed
8 8 8 8 7 5 5 4 4 4 4 4 3 4 6 9 11 11 13 14 14 14 14 13 14 14 13 14 14 14 13 14
7 6 7 6 6 6 6 6 7 7 8 9 8 7 11 12 12 9 12 15 16 17 16 16 16 16 15 15 15 15 15 16
7 6 7 7 6 7 10 11 13 12 11 12 9 9 10 10 13 15 15 16 17 18 19 19 18 18 19 18 17 13 16 18
6 7 8 8 7 8 8 8 9 10 11 12 11 11 10 14 13 16 13 14 15 19 20 21 21 17 20 21 15 15 17 19
7 7 8 8 7 8 7 8 9 8 10 12 11 11 10 10 11 11 12 13 15 15 14 20 16 18 21 15 17 12 17 19
6 7 8 9 7 7 8 8 9 9 10 11 11 11 11 12 11 12 12 12 14 15 18 19 18 16 19 21 21 19 18 20
5 6 7 7 7 8 8 9 9 10 10 11 11 10 11 12 12 13 12 12 13 14 16 19 21 20 19 20 27 26 22 22
4 5 6 6 7 8 8 8 10 10 10 10 11 12 12 13 13 12 12 13 13 15 16 18 20 21 23 23 21 24 24 24
3 3 6 6 6 7 7 7 9 10 10 11 13 13 14 15 14 13 13 15 15 15 15 16 18 19 22 25 25 25 23 25
2 3 5 6 6 6 6 7 8 9 9 10 13 15 15 16 15 14 15 16 15 15 15 16 17 19 21 23 26 25 27 32
2 2 4 5 5 5 5 6 7 8 9 10 13 13 15 16 15 15 16 15 14 15 16 16 18 20 22 24 25 27 27 26
3 2 4 5 4 5 4 4 7 7 8 10 12 12 14 15 14 15 16 15 15 15 17 18 18 20 23 25 26 27 28 32
3 2 4 4 4 5 5 6 8 8 8 11 11 14 14 15 14 15 15 16 17 17 17 19 20 20 23 23 24 25 28 31
3 3 3 4 4 4 5 7 7 8 8 12 11 15 14 15 16 16 16 16 16 17 17 19 17 18 14 22 8 13 21 23
4 3 3 4 6 5 7 6 6 7 11 11 13 13 13 14 15 15 16 16 16 17 16 16 18 19 15 8 6 6 14 18
5 3 3 5 7 7 8 8 10 11 11 12 15 13 14 14 15 16 17 16 16 16 17 20 18 18 18 14 18 21 5 10
6 4 4 5 6 7 9 9 10 11 13 14 14 15 14 15 16 17 17 17 17 17 18 19 19 19 20 20 19 18 21 13
6 4 4 5 5 6 7 8 10 11 13 14 15 17 16 16 18 20 19 19 18 20 20 20 21 21 22 21 20 14 14 14
6 4 4 4 4 5 6 8 9 11 12 13 16 16 17 18 21 21 21 21 21 20 20 21 22 22 22 22 22 24 24 25
5 4 3 4 4 5 6 8 9 11 12 14 14 16 18 20 20 22 21 22 22 22 21 22 22 23 25 24 23 25 23 24

GFSFLT2_925_spd_168.txt.gz
Wind_Speed
11 8 8 8 7 6 6 6 6 7 8 8 8 7 9 10 10 11 11 12 13 15 15 15 15 15 15 15 15 14 14 13
10 7 6 6 7 9 9 10 12 11 12 12 8 8 9 11 9 7 12 14 15 17 17 17 17 17 17 17 17 17 17 15
9 6 6 8 7 10 13 13 13 12 13 14 12 10 10 11 11 13 14 13 13 14 16 19 20 20 20 18 19 20 16 15
6 6 7 9 6 10 9 10 11 12 15 17 14 14 14 13 13 13 14 10 14 16 14 16 19 21 22 21 24 25 16 18
6 6 6 8 10 9 10 10 12 11 13 17 15 15 16 16 16 16 16 15 15 16 14 15 12 15 18 21 21 23 19 20
7 5 7 8 8 7 7 9 10 12 14 16 17 15 17 16 18 17 18 18 18 17 18 19 19 19 20 18 14 16 17 18
6 6 6 7 5 7 8 8 10 12 11 13 16 16 17 16 16 17 17 18 18 19 20 21 24 25 22 23 21 19 22 24
6 6 6 6 5 6 7 7 9 9 10 13 12 14 15 15 16 16 16 17 18 19 19 22 23 23 24 25 25 25 22 21
6 5 5 5 3 5 6 7 7 8 9 11 11 14 15 16 16 16 17 20 20 18 19 20 22 23 23 23 23 25 23 21
5 5 5 5 4 5 4 6 8 8 9 9 13 15 16 17 17 17 19 20 19 19 18 21 22 23 25 26 26 26 25 25
4 4 4 4 4 4 4 6 7 8 9 9 15 13 17 18 17 18 20 20 20 21 22 20 22 23 24 25 26 27 27 25
4 3 3 4 4 3 3 4 6 6 8 11 12 13 15 17 16 18 18 18 19 21 20 20 21 24 26 28 26 28 28 27
6 5 4 4 3 4 4 5 6 6 6 10 9 13 14 16 16 17 17 18 19 20 20 20 21 22 22 27 23 25 23 24
5 4 4 4 4 4 3 3 2 2 6 8 9 13 14 14 16 16 18 20 18 19 18 19 17 22 16 20 6 14 11 27
4 3 4 5 5 4 5 3 4 7 10 9 13 11 12 13 15 16 17 17 17 18 18 18 18 20 16 9 5 5 15 16
4 3 4 5 6 6 7 7 8 8 8 9 10 10 13 13 13 15 17 16 15 17 17 19 17 17 18 9 18 19 5 9
5 5 5 5 6 7 7 7 7 7 9 11 10 14 12 13 14 18 17 17 17 18 19 19 18 16 17 18 17 17 20 9
6 6 6 5 6 6 7 6 7 9 11 12 14 13 13 15 18 17 19 19 19 19 20 20 19 18 18 18 16 12 15 13
6 4 6 5 5 6 6 7 8 9 11 13 13 13 14 15 18 18 19 19 19 20 20 19 19 19 19 20 20 20 20 22
6 5 6 4 5 5 6 7 7 8 10 11 12 14 15 18 19 19 20 20 20 21 20 20 19 20 20 21 22 21 21 21